TimePST,TemperatureF,Dew PointF,Humidity,Sea Level PressureIn,VisibilityMPH,Wind Direction,Wind SpeedMPH,Gust SpeedMPH,PrecipitationIn,Events,Conditions,WindDirDegrees,DateUTC
12:00 AM,24.8,10.4,54,30.27,20.0,ESE,10.4,-,N/A,,Clear,110,2014-02-04 08:00:00
1:00 AM,24.8,8.6,50,30.29,20.0,East,11.5,-,N/A,,Partly Cloudy,90,2014-02-04 09:00:00
2:00 AM,24.8,8.6,50,30.29,20.0,East,12.7,-,N/A,,Clear,100,2014-02-04 10:00:00
3:00 AM,23.0,8.6,54,30.30,20.0,East,9.2,-,N/A,,Partly Cloudy,100,2014-02-04 11:00:00
4:00 AM,26,9,35,30.32,19,East,11.5,,,,Mostly Cloudy,100,2014-02-04 12:00:00
4:00 AM,26.6,8.6,47,30.32,20.0,East,10.4,-,N/A,,Mostly Cloudy,100,2014-02-04 12:00:00
5:00 AM,24.8,6.8,46,30.33,20.0,East,9.2,-,N/A,,Partly Cloudy,90,2014-02-04 13:00:00
6:00 AM,23.0,6.8,50,30.34,20.0,East,8.1,-,N/A,,Partly Cloudy,90,2014-02-04 14:00:00
7:00 AM,26.6,3.2,37,30.35,30.0,East,11.5,-,N/A,,Mostly Cloudy,80,2014-02-04 15:00:00
8:00 AM,26.6,3.2,37,30.36,30.0,ENE,12.7,-,N/A,,Partly Cloudy,70,2014-02-04 16:00:00
9:00 AM,28.4,3.2,34,30.38,30.0,ENE,12.7,18.4,N/A,,Partly Cloudy,70,2014-02-04 17:00:00
10:00 AM,29,2,18,30.40,28,East,11.5,,,,Scattered Clouds,80,2014-02-04 18:00:00
10:00 AM,28.4,1.4,31,30.39,30.0,ENE,12.7,-,N/A,,Partly Cloudy,70,2014-02-04 18:00:00
11:00 AM,30.2,1.4,29,30.40,30.0,ENE,8.1,-,N/A,,Partly Cloudy,70,2014-02-04 19:00:00
12:00 PM,32.0,1.4,27,30.40,30.0,East,9.2,-,N/A,,Partly Cloudy,80,2014-02-04 20:00:00
1:00 PM,33.8,1.4,25,30.39,30.0,East,6.9,-,N/A,,Partly Cloudy,100,2014-02-04 21:00:00
2:00 PM,33.8,1.4,25,30.38,30.0,East,3.5,-,N/A,,Partly Cloudy,80,2014-02-04 22:00:00
3:00 PM,33.8,3.2,28,30.38,30.0,East,18.4,-,N/A,,Partly Cloudy,100,2014-02-04 23:00:00
4:00 PM,32,4,17,30.39,28,East,15.0,,,,Scattered Clouds,100,2014-02-05 00:00:00
4:00 PM,32.0,5.0,32,30.39,30.0,East,15.0,-,N/A,,Partly Cloudy,100,2014-02-05 00:00:00
5:00 PM,30.2,3.2,32,30.40,30.0,East,16.1,-,N/A,,Partly Cloudy,100,2014-02-05 01:00:00
6:00 PM,30.2,5.0,34,30.41,30.0,East,18.4,-,N/A,,Mostly Cloudy,100,2014-02-05 02:00:00
7:00 PM,30.2,5.0,34,30.42,30.0,East,13.8,-,N/A,,Mostly Cloudy,90,2014-02-05 03:00:00
8:00 PM,30.2,3.2,32,30.43,30.0,East,11.5,-,N/A,,Overcast,80,2014-02-05 04:00:00
9:00 PM,28.4,3.2,34,30.45,30.0,East,11.5,-,N/A,,Overcast,90,2014-02-05 05:00:00
10:00 PM,29,2,18,30.47,28,East,12.7,,,,Overcast,90,2014-02-05 06:00:00
10:00 PM,28.4,3.2,34,30.46,30.0,East,15.0,-,N/A,,Overcast,90,2014-02-05 06:00:00
11:00 PM,28.4,3.2,34,30.48,20.0,East,10.4,-,N/A,,Overcast,80,2014-02-05 07:00:00